Satellite-Ground Cal/Val Site Overpasses Predictions

Prediction of Satellite NPP Overpassing Cal/Val Site: Antarctic Dome C

Ground Cal/Val Site Location: Latitude: -75.10, Longitude: 123.35; Satellite-Ground Site NADIR distance within 100 km.

Table of predicted overpasses for the next 14.0 days since TLE Epoch: 7/20/2024
Interval Starting Time Ending Time Minimum Distance Time Minimum Distance (km)
1 07/21/2024 15:07:57 07/21/2024 15:08:02 07/21/2024 15:08:00 98.02
2 07/22/2024 14:48:56 07/22/2024 14:49:25 07/22/2024 14:49:10 13.37
3 07/24/2024 07:31:48 07/24/2024 07:32:17 07/24/2024 07:32:02 4.32
4 07/27/2024 14:55:17 07/27/2024 14:55:46 07/27/2024 14:55:32 23.88
5 07/28/2024 14:36:36 07/28/2024 14:36:52 07/28/2024 14:36:44 83.31
6 07/29/2024 07:38:09 07/29/2024 07:38:36 07/29/2024 07:38:22 39.85
7 07/30/2024 07:19:24 07/30/2024 07:19:44 07/30/2024 07:19:34 69.94
8 08/01/2024 15:01:41 08/01/2024 15:02:04 08/01/2024 15:01:52 61.39
